Wind_Speed
15 20 9 17 17 16 20 23 27 29 30 25 33 39 35 35 27 12 9 11 25 31 21 24 26 26 26 26 28 29 30 33 36 38 39 38 38 35 35 35 34 33 32 28
21 9 11 14 18 20 23 26 28 25 18 33 39 40 34 19 14 13 19 24 16 20 19 23 30 34 36 36 35 34 35 36 37 37 39 40 37 35 28 33 35 32 30 30
18 8 14 20 23 28 24 20 19 28 35 32 27 31 15 11 15 20 12 13 14 23 28 31 29 30 32 35 36 35 34 34 34 33 34 34 37 38 35 31 34 31 31 34
9 15 20 23 27 18 20 18 25 26 31 23 21 12 16 14 12 7 9 20 27 27 28 26 26 27 30 32 34 36 35 32 33 35 36 36 36 37 36 35 36 37 35 33
15 15 28 21 12 21 17 24 28 37 35 23 11 7 7 7 10 7 23 26 26 25 22 22 28 27 30 30 28 29 27 25 26 29 28 30 34 32 29 33 36 30 35 33
17 27 14 12 18 19 25 28 36 14 14 3 6 6 7 11 12 25 30 26 23 20 28 33 29 32 29 25 28 28 29 29 30 32 31 31 32 35 33 32 29 36 36 32
23 9 12 15 13 23 21 27 10 5 4 3 6 13 24 27 16 27 25 23 22 31 39 32 30 31 29 32 34 33 29 33 32 31 29 28 30 32 32 32 27 30 36 34
12 8 10 14 22 22 18 9 4 6 6 12 28 11 7 11 21 25 18 31 34 31 30 31 33 31 33 32 29 30 28 28 32 30 28 24 26 27 30 32 31 28 32 29
11 7 15 21 18 11 11 11 13 17 21 8 9 12 20 13 31 19 32 25 31 31 35 29 30 34 29 25 26 31 28 28 28 29 29 24 24 25 22 22 36 36 30 31
12 19 14 6 7 16 20 21 9 5 4 5 5 20 22 29 34 30 29 32 32 31 30 26 30 25 26 24 26 30 29 29 30 28 28 28 23 23 22 22 24 28 37 36
23 14 14 19 24 25 22 13 6 7 8 3 6 15 31 41 22 31 33 30 29 30 26 27 28 25 26 24 27 31 32 28 29 28 28 29 26 22 21 25 22 20 23 26
17 13 21 29 10 11 12 5 7 2 7 19 18 36 32 24 34 29 27 27 28 26 24 24 25 24 23 27 31 34 32 28 29 29 29 29 28 24 23 24 19 16 19 18
21 10 18 14 2 4 8 10 14 19 26 33 18 25 42 36 24 24 23 22 21 21 21 23 24 25 28 30 29 28 27 28 29 28 29 27 28 23 25 21 15 17 16 16
22 19 22 19 26 29 32 32 32 30 25 31 34 44 28 24 25 26 19 18 21 23 24 24 25 27 28 27 29 29 26 28 30 29 27 27 28 24 24 19 13 15 13 14
18 24 29 27 30 30 31 32 30 32 33 25 28 30 29 22 24 23 19 19 22 25 27 27 29 31 33 32 29 29 27 28 29 29 26 26 25 26 23 17 13 16 12 10
26 20 25 37 24 16 28 27 19 16 11 17 21 25 13 17 20 20 20 20 24 27 29 30 29 29 31 30 26 26 27 27 28 29 26 26 25 25 21 15 14 13 11 8
24 17 15 15 26 29 14 14 25 19 15 9 13 13 13 16 18 19 24 24 26 29 31 31 28 27 27 27 25 24 27 28 28 27 25 25 23 24 19 15 14 11 10 7
13 14 14 19 21 4 2 26 15 10 7 12 9 11 14 18 23 22 22 26 28 29 31 30 29 30 29 28 28 27 27 29 28 27 24 24 22 22 18 15 17 13 8 6
7 8 10 9 16 25 26 15 16 20 14 9 14 14 16 20 26 20 23 27 30 31 31 31 32 33 31 30 31 31 32 30 29 25 23 22 20 20 17 14 16 15 11 8
10 15 22 33 10 6 11 15 23 28 26 11 20 14 20 21 33 27 25 27 30 30 30 32 34 34 33 32 32 34 36 35 30 23 20 19 19 18 16 11 15 16 14 12
24 29 17 14 14 15 22 15 18 10 12 24 18 19 20 26 27 28 28 29 31 32 32 35 34 33 32 36 46 48 46 36 29 25 21 18 18 16 15 10 17 15 14 19
21 16 14 12 11 10 15 32 29 33 37 30 19 18 17 20 21 24 27 30 33 33 35 35 36 35 38 41 52 43 35 31 29 23 20 16 16 13 11 8 12 14 13 21
12 18 27 26 26 34 27 26 28 21 29 26 20 19 20 19 22 24 29 32 33 34 37 38 41 41 47 52 38 31 22 19 22 23 17 14 13 11 7 9 9 22 30 27
30 30 31 32 29 32 27 25 22 19 23 16 15 20 20 20 22 26 30 33 34 35 39 42 43 49 53 38 23 21 14 13 17 18 12 11 10 5 7 15 10 22 25 36
28 23 26 31 28 32 26 25 20 19 18 15 12 17 19 20 22 28 32 33 34 38 41 42 46 53 41 30 22 18 15 10 12 9 10 9 6 12 7 11 13 25 39 28
28 26 28 35 33 31 31 23 12 14 11 12 13 15 15 19 24 30 32 33 36 39 42 42 54 43 28 27 24 21 12 6 12 13 11 8 14 8 9 16 18 39 36 45
Wind_Direction
331 332 337 334 343 339 325 316 313 313 313 306 313 310 316 314 310 308 295 292 292 297 299 295 297 303 303 302 298 294 291 289 287 282 279 278 279 279 279 277 269 269 276 275
337 343 346 341 331 322 316 309 308 319 312 313 316 312 313 300 263 260 289 303 302 302 311 313 308 305 302 299 295 293 291 290 289 288 291 289 291 285 269 267 265 257 260 272
339 333 327 323 318 316 314 315 321 316 321 322 316 314 305 276 258 292 284 288 297 309 312 313 311 308 307 305 302 301 301 301 299 292 288 286 285 284 282 262 257 259 258 260
334 319 317 317 316 329 331 317 312 315 320 310 304 292 298 283 287 261 269 311 322 322 321 314 313 311 313 311 309 306 303 305 304 297 290 283 281 275 270 266 255 252 259 260
319 316 317 329 338 329 317 317 315 312 301 289 287 253 282 309 304 286 311 322 323 321 320 324 321 314 324 323 319 317 314 302 299 301 298 288 271 264 266 262 253 251 245 254
328 319 325 326 323 324 319 314 320 309 294 262 152 347 279 299 301 312 323 325 324 321 329 329 319 317 316 309 311 311 310 308 298 296 297 296 292 277 263 260 259 251 238 250
329 322 306 310 317 317 312 332 333 321 331 317 208 326 281 297 323 324 316 324 323 322 324 322 319 317 308 305 310 305 298 301 302 301 298 295 292 292 281 256 248 250 236 253
333 324 314 313 319 320 326 359 322 293 308 299 295 255 293 315 316 318 322 320 315 312 317 316 314 311 314 315 311 310 307 298 302 308 303 302 304 294 296 256 246 239 238 226
322 298 306 303 315 326 319 311 288 275 276 266 265 282 280 305 315 303 317 320 307 301 301 308 307 309 311 306 310 321 316 320 316 316 310 311 305 296 285 283 260 250 238 253
322 306 309 319 296 309 300 300 293 257 291 281 282 294 291 313 312 319 324 323 319 314 308 291 297 304 307 305 314 319 320 319 322 324 315 319 312 301 282 281 261 257 256 259
316 294 286 292 311 303 303 302 260 254 267 281 305 280 305 309 327 323 323 323 320 315 315 311 301 302 302 302 307 313 316 313 316 320 319 324 320 305 290 284 278 267 250 249
319 299 290 308 323 301 292 278 204 231 276 283 286 286 302 313 316 327 323 326 326 325 317 314 308 308 305 303 308 311 311 309 313 318 319 324 322 314 302 293 283 262 246 249
312 295 308 305 289 340 321 280 274 287 297 288 286 280 310 322 330 331 330 332 342 344 336 328 322 317 312 309 311 315 317 309 310 314 318 321 323 320 304 298 280 253 252 244
295 284 276 267 286 294 296 290 284 288 282 281 277 285 332 332 333 332 331 333 335 333 326 322 316 311 311 314 317 320 316 307 307 312 315 320 323 321 315 305 269 242 254 257
300 286 292 287 290 296 297 297 301 288 288 268 299 312 330 327 330 332 328 331 331 330 326 320 314 312 309 307 308 313 313 308 308 309 314 317 321 323 319 306 260 242 251 271
304 289 302 304 318 321 312 317 319 334 319 307 314 325 347 351 339 332 327 330 332 329 325 320 320 321 321 319 309 309 311 312 311 309 313 317 320 323 318 301 260 261 238 286
296 302 308 300 323 314 312 340 322 302 313 327 323 335 336 328 327 338 332 330 329 327 327 325 327 332 334 329 321 311 310 314 311 310 311 317 317 321 316 299 235 278 213 273
305 314 302 287 312 260 239 318 307 318 307 306 293 284 299 312 314 325 328 329 327 327 329 326 327 329 329 326 322 315 310 314 310 308 307 313 311 317 312 298 227 249 222 253
316 327 322 294 312 291 302 287 325 315 301 281 290 286 290 309 313 327 324 330 329 327 327 326 325 325 325 324 320 315 313 311 307 305 304 311 310 312 308 296 225 228 191 190
311 306 315 303 284 275 284 284 295 297 281 263 323 307 316 310 323 328 329 327 325 325 327 329 327 326 325 324 320 314 309 303 301 299 302 309 309 309 309 286 224 223 211 199
315 316 302 294 280 282 283 283 323 341 314 322 322 320 302 315 318 319 323 325 322 323 326 327 325 326 327 324 316 305 296 290 292 295 302 307 304 305 301 268 222 245 215 206
312 308 308 317 299 281 319 305 319 314 307 315 324 328 311 312 315 320 325 324 322 325 327 325 323 323 323 317 312 303 298 284 277 278 290 299 298 300 298 254 236 193 180 175
297 301 298 290 285 301 313 303 296 297 298 309 312 320 316 312 322 331 327 325 325 328 328 327 326 325 322 322 315 311 302 275 256 259 276 286 291 284 232 240 225 170 184 186
314 316 301 308 322 316 310 311 299 286 279 291 302 315 316 320 330 332 328 327 331 331 331 330 331 328 328 326 327 326 318 263 238 244 257 265 272 240 218 243 197 179 199 189
322 321 324 309 325 322 324 323 313 289 273 275 283 303 316 324 333 331 331 332 334 333 334 337 334 333 331 329 332 333 327 259 222 198 228 238 218 169 217 193 162 158 167 188
338 325 314 310 320 312 321 330 323 302 279 263 285 298 314 329 331 333 333 336 336 336 341 339 335 342 338 323 321 311 298 203 173 174 198 195 165 172 169 167 156 156 148 150
Height
3152 3151 3148 3148 3147 3147 3145 3143 3140 3139 3136 3128 3127 3124 3123 3120 3116 3114 3112 3111 3110 3107 3104 3103 3101 3098 3095 3092 3089 3086 3084 3081 3079 3078 3076 3076 3076 3077 3076 3077 3077 3077 3075 3075
3150 3147 3147 3146 3146 3144 3142 3139 3135 3132 3131 3128 3122 3116 3114 3111 3111 3110 3110 3108 3105 3102 3100 3097 3095 3091 3088 3085 3082 3078 3075 3072 3070 3067 3066 3065 3065 3066 3067 3067 3067 3067 3067 3067
3146 3146 3144 3143 3140 3138 3134 3132 3130 3127 3120 3118 3112 3107 3107 3106 3107 3107 3105 3102 3101 3098 3095 3091 3088 3085 3081 3077 3075 3071 3067 3063 3061 3059 3057 3055 3055 3055 3056 3056 3058 3057 3056 3056
3145 3142 3141 3139 3136 3133 3132 3131 3127 3124 3121 3115 3113 3106 3103 3102 3103 3101 3098 3096 3094 3092 3089 3086 3083 3079 3074 3071 3067 3063 3060 3056 3053 3049 3046 3045 3044 3043 3045 3045 3046 3047 3047 3047
3144 3139 3137 3134 3133 3130 3130 3126 3123 3119 3115 3110 3107 3109 3097 3100 3099 3099 3095 3091 3088 3085 3083 3080 3077 3073 3070 3066 3061 3057 3053 3048 3045 3041 3037 3034 3033 3031 3031 3033 3035 3035 3035 3037
3139 3135 3134 3133 3132 3130 3126 3122 3118 3111 3111 3110 3108 3111 3099 3097 3096 3095 3091 3087 3084 3081 3078 3074 3071 3068 3064 3060 3056 3051 3047 3042 3038 3034 3030 3026 3022 3020 3019 3021 3021 3023 3024 3027
3137 3134 3133 3132 3132 3130 3127 3123 3118 3109 3106 3106 3106 3105 3095 3094 3094 3090 3087 3084 3080 3076 3072 3068 3064 3061 3058 3055 3050 3045 3040 3036 3030 3026 3023 3019 3015 3012 3010 3010 3011 3012 3013 3018
3134 3132 3132 3131 3130 3128 3124 3125 3130 3124 3113 3111 3110 3095 3090 3091 3092 3088 3084 3080 3076 3072 3067 3063 3059 3055 3052 3048 3042 3037 3032 3028 3023 3019 3016 3012 3008 3005 3002 3002 3002 3004 3006 3008
3136 3130 3129 3127 3125 3126 3123 3123 3122 3118 3111 3107 3099 3096 3088 3087 3088 3084 3081 3075 3072 3066 3062 3057 3053 3050 3046 3042 3037 3031 3026 3021 3016 3012 3009 3005 3002 2998 2995 2994 2995 2995 2998 2999
3136 3128 3123 3124 3124 3123 3120 3118 3119 3116 3112 3105 3096 3094 3086 3085 3081 3079 3075 3068 3063 3059 3055 3051 3046 3043 3040 3036 3033 3028 3022 3016 3012 3007 3004 2999 2996 2992 2989 2988 2989 2989 2990 2992
3129 3125 3121 3120 3120 3116 3114 3114 3116 3116 3112 3105 3096 3087 3086 3082 3077 3074 3069 3064 3057 3053 3049 3044 3041 3038 3035 3032 3028 3023 3017 3012 3008 3003 3000 2993 2990 2987 2984 2983 2981 2982 2984 2984
3127 3124 3116 3115 3114 3110 3110 3110 3108 3111 3107 3100 3098 3079 3081 3079 3075 3070 3064 3060 3053 3048 3044 3040 3037 3034 3031 3027 3023 3018 3012 3007 3002 2998 2995 2989 2986 2981 2978 2975 2975 2976 2976 2977
3126 3121 3115 3108 3111 3109 3107 3107 3106 3104 3102 3094 3095 3079 3076 3073 3068 3065 3060 3056 3051 3045 3041 3037 3034 3030 3026 3021 3016 3011 3006 3002 2997 2994 2989 2986 2982 2976 2973 2970 2971 2970 2971 2972
3124 3118 3118 3116 3113 3109 3105 3102 3099 3100 3096 3088 3082 3073 3070 3069 3065 3060 3056 3053 3048 3043 3038 3034 3030 3025 3020 3015 3010 3004 3000 2996 2991 2988 2985 2982 2977 2973 2969 2967 2967 2967 2968 2968
3117 3110 3109 3108 3106 3104 3100 3093 3088 3088 3085 3084 3074 3071 3067 3066 3061 3057 3053 3049 3044 3040 3035 3030 3024 3018 3013 3009 3004 2999 2994 2989 2986 2982 2980 2977 2974 2970 2965 2964 2963 2963 2964 2966
3113 3108 3104 3096 3097 3098 3092 3086 3083 3079 3078 3076 3072 3068 3065 3062 3059 3055 3051 3045 3040 3035 3030 3025 3019 3012 3006 3001 2998 2994 2989 2984 2980 2976 2974 2971 2967 2964 2962 2961 2959 2960 2962 2964
3105 3104 3101 3095 3095 3091 3087 3084 3081 3076 3075 3073 3069 3067 3062 3058 3055 3051 3046 3042 3036 3031 3025 3019 3013 3007 3002 2997 2993 2989 2984 2980 2975 2972 2969 2966 2962 2961 2958 2957 2958 2958 2961 2963
3104 3103 3101 3095 3091 3089 3082 3082 3078 3072 3070 3069 3066 3062 3059 3055 3051 3048 3043 3037 3032 3026 3020 3015 3009 3003 2998 2993 2988 2983 2979 2974 2971 2968 2965 2962 2959 2957 2955 2954 2956 2958 2960 2963
3101 3099 3098 3096 3091 3084 3079 3076 3073 3069 3068 3064 3060 3058 3055 3051 3046 3044 3039 3033 3028 3021 3016 3010 3004 2998 2993 2988 2982 2977 2972 2969 2965 2962 2960 2957 2955 2952 2951 2951 2952 2956 2960 2963
3102 3100 3100 3094 3090 3082 3073 3071 3069 3066 3061 3061 3057 3054 3051 3048 3041 3037 3033 3029 3023 3018 3012 3006 2999 2993 2987 2982 2976 2970 2965 2961 2958 2957 2954 2953 2951 2947 2947 2947 2950 2953 2957 2962
3097 3093 3089 3089 3088 3079 3071 3068 3066 3064 3062 3055 3053 3051 3047 3044 3042 3034 3029 3024 3019 3013 3007 3001 2994 2987 2982 2975 2968 2960 2954 2951 2951 2950 2950 2949 2946 2945 2944 2944 2948 2951 2954 2960
3095 3092 3088 3085 3083 3074 3070 3067 3068 3063 3056 3055 3050 3048 3043 3041 3036 3031 3026 3020 3014 3007 3001 2995 2987 2980 2974 2966 2956 2945 2943 2942 2942 2943 2945 2944 2942 2942 2941 2941 2946 2949 2953 2958
3088 3090 3088 3085 3076 3068 3066 3062 3058 3056 3051 3050 3048 3045 3041 3037 3032 3027 3022 3016 3009 3003 2995 2988 2979 2971 2964 2953 2941 2933 2931 2931 2933 2935 2940 2940 2939 2939 2939 2941 2944 2947 2953 2959
3080 3079 3076 3074 3065 3061 3057 3055 3052 3049 3046 3046 3045 3042 3038 3033 3029 3024 3019 3011 3004 2998 2989 2980 2971 2962 2950 2939 2933 2929 2924 2924 2926 2930 2936 2937 2937 2937 2938 2938 2942 2946 2951 2957
3081 3076 3069 3062 3060 3055 3052 3049 3045 3043 3042 3042 3042 3040 3036 3031 3026 3021 3015 3007 3000 2992 2984 2975 2965 2953 2940 2932 2927 2924 2921 2920 2922 2928 2932 2935 2936 2937 2937 2935 2939 2944 2950 2961
3078 3074 3068 3056 3055 3053 3046 3044 3042 3039 3039 3040 3039 3038 3035 3029 3024 3018 3011 3005 2996 2988 2979 2969 2959 2946 2936 2929 2923 2918 2917 2917 2921 2926 2930 2934 2936 2937 2937 2938 2941 2950 2958 2967